Simultaneous Nadir Overpasses (SNOs) Predictions

Prediction of SNOs over PacNW region [( 10.00, 139.50) to ( 22.70, 165.60)] between AQUA and NPP Satellites:

Table of predicted SNOs over PacNW region for the next 30.0 days since TLE Epoch: 2/11/2017
Index Date (AQUA) Time (AQUA) AQUA Lat,Lon Date (NPP) Time (NPP) NPP Lat,Lon Distance(km) Time Diff (sec)
1 02/17/2017 15:09:55 22.59, 159.85 02/17/2017 15:11:10 23.20, 157.20 279.10 75
2 02/20/2017 03:31:46 22.67, 147.51 02/20/2017 03:28:17 25.82, 144.93 436.62 209
3 02/25/2017 15:59:25 22.64, 147.49 02/25/2017 16:01:48 23.29, 144.56 309.34 143
4 03/05/2017 15:10:02 22.62, 159.85 03/05/2017 15:10:59 23.21, 157.24 275.10 57
5 03/08/2017 03:31:54 22.69, 147.50 03/08/2017 03:28:24 26.82, 144.71 539.18 210




NCC Satellite Simultaneous Nadir Overpasses (SNOs) Prediction Service
